IZ2XCK-13 Weather Reports


time (UTC)temp
C
wind
direction
speed
KPH
gust
KPH
rain 1hr
cm
rain 24hr
cm
rain mn
cm
humidity
%
barometer
mb
20260506050540 12 0.0 0.0 0.00 0.00 0.00 99 1012.3
20260506044540 11 0.0 0.0 0.00 0.00 0.00 99 1012.1
20260506042539 12 0.0 0.0 0.00 0.00 0.00 99 1011.6
20260506040539 12 0.0 0.0 0.00 0.00 0.00 98 1011.4
20260506034539 11 0.0 0.0 0.00 0.00 0.00 99 1011.3
20260506032538 12 0.0 0.0 0.00 0.00 0.00 98 1011.9
20260506030538 12 0.0 0.0 0.00 0.00 0.00 99 1012.2
20260506024538 11 0.0 0.0 0.00 0.00 0.00 99 1012.5
20260506022537 12 0.0 0.0 0.00 0.00 0.00 95 1012.7
20260506020537 12 0.0 0.0 0.00 0.00 0.00 99 1012.7
20260506014537 12 0.0 0.0 0.00 0.00 0.00 99 1012.4
20260506012537 12 0.0 0.0 0.00 0.00 0.00 99 1012.5
20260506010536 11 0.0 0.0 0.00 0.00 0.00 99 1012.9
20260506004536 12 0.0 0.0 0.00 0.00 0.00 99 1012.9
20260506002536 11 0.0 0.0 0.00 0.00 0.00 99 1013.2
20260506000535 11 0.0 0.0 0.00 0.00 0.00 99 1013.3
20260505234535 12 0.0 0.0 0.00 0.00 0.00 94 1013.4
20260505232535 12 0.0 0.0 0.00 0.00 0.00 95 1013.6
20260505230534 12 0.0 0.0 0.00 0.00 0.00 99 1013.6
20260505224534 11 0.0 0.0 0.00 0.00 0.00 99 1013.4
20260505222534 12 0.0 0.0 0.00 0.00 0.00 95 1013.6
20260505214533 12 0.0 0.0 0.00 0.00 0.00 97 1013.9
20260505212533 12 0.0 0.0 0.00 0.00 0.00 91 1014.3
20260505210532 12 0.0 0.0 0.00 0.00 0.00 97 1014.4
20260505204532 11 0.0 0.0 0.00 0.00 0.00 99 1014.5
20260505202532 12 0.0 0.0 0.00 0.00 0.00 97 1014.6
20260505200532 11 0.0 0.0 0.00 0.00 0.00 99 1014.6
20260505194531 12 0.0 0.0 0.00 0.00 0.00 99 1014.5
20260505192531 12 0.0 0.0 0.00 0.00 0.00 94 1014.4
20260505190531 11 0.0 0.0 0.00 0.00 0.00 99 1014.3
20260505184530 13 0.0 0.0 0.00 0.00 0.00 86 1014.2
20260505182530 12 0.0 0.0 0.00 0.00 0.00 87 1014.1
20260505180530 12 0.0 0.0 0.00 0.00 0.00 87 1014.0
20260505174529 12 0.0 0.0 0.00 0.00 0.00 93 1013.9
20260505172529 12 0.0 0.0 0.00 0.00 0.00 99 1013.9
20260505170529 12 0.0 0.0 0.00 0.00 0.00 90 1013.9
20260505164529 13 0.0 0.0 0.00 0.00 0.00 87 1014.0
20260505162528 12 0.0 0.0 0.00 0.00 0.00 99 1014.2
20260505160528 13 0.0 0.0 0.00 0.00 0.00 87 1014.1
20260505152527 13 0.0 0.0 0.00 0.00 0.00 81 1014.2
20260505150527 13 0.0 0.0 0.00 0.00 0.00 80 1014.2
20260505140526 13 0.0 0.0 0.00 0.00 0.00 80 1014.2
20260505124525 14 0.0 0.0 0.00 0.00 0.00 75 1014.6
20260505122525 13 0.0 0.0 0.00 0.00 0.00 79 1014.6
20260505120524 12 0.0 0.0 0.00 0.00 0.00 90 1014.5
20260505114524 13 0.0 0.0 0.00 0.00 0.00 91 1014.5
20260505112523 13 0.0 0.0 0.00 0.00 0.00 94 1014.6
20260505110523 13 0.0 0.0 0.00 0.00 0.00 95 1014.5
20260505100522 12 0.0 0.0 0.00 0.00 0.00 87 1014.8
20260505094522 12 0.0 0.0 0.00 0.00 0.00 87 1015.0
20260505092522 12 0.0 0.0 0.00 0.00 0.00 79 1015.1
20260505090521 13 0.0 0.0 0.00 0.00 0.00 64 1015.2
20260505084521 12 0.0 0.0 0.00 0.00 0.00 80 1015.2
20260505082521 12 0.0 0.0 0.00 0.00 0.00 68 1015.0
20260505080520 13 0.0 0.0 0.00 0.00 0.00 70 1014.8
20260505074520 13 0.0 0.0 0.00 0.00 0.00 62 1014.8
20260505072520 13 0.0 0.0 0.00 0.00 0.00 63 1014.4
20260505070519 13 0.0 0.0 0.00 0.00 0.00 58 1014.2
20260505064519 14 0.0 0.0 0.00 0.00 0.00 51 1014.1
20260505062519 13 0.0 0.0 0.00 0.00 0.00 51 1014.2
20260505060518 13 0.0 0.0 0.00 0.00 0.00 56 1014.2